Regional Weather Roundup
Issued by NWS Spokane, WA

Home | Current Version | Previous Version | Text Only | Print | Product List | Glossary On
Versions: 1 2 3 4 5 6 7 8 9 10 11 12 13 14 15 16 17 18 19 20 21 22 23 24 25 26 27 28 29 30 31 32 33 34 35 36 37 38 39 40 41 42 43 44 45 46 47 48 49 50
851
NZUS01 KOTX 181810
RWROTX

Eastern Washington/Northern Idaho Roundup
National Weather Service, Spokane WA
1100 AM PDT FRI AUG 18 2017

Note: "fair" indicated few or no clouds below 12,000 feet with no
significant weather and/or obstructions to visibility.

...Northeast Washington and Northern Idaho Panhandle...

CITY           SKY/WX    TMP DP  RH WIND       PRES   REMARKS
Spokane Intl   MOSUNNY   76  43  30 SW15      30.05F
Spokane Downto SUNNY     79  44  28 SW10      30.05F
Coeur d Alene  SUNNY     75  46  35 S8        30.07F
Deer Park      SUNNY     73  44  35 S7        30.05F
Sandpoint      SUNNY     77  43  29 S6        30.03F
Bonners Ferry  FAIR      77  46  33 S8        30.00F

...Southeast Washington and southern Idaho Panhandle...

CITY           SKY/WX    TMP DP  RH WIND       PRES   REMARKS
Walla Walla    SUNNY     82  40  22 SW13      30.04F
Pullman/Moscow SUNNY     77  39  25 VRB3      30.10F
Lewiston       SUNNY     77  46  33 NW3       30.04F
Lowell           N/A     75  46  35 CALM      30.06F
Grangeville    FAIR      77  41  27 CALM      30.12F

...Columbia Basin...

CITY           SKY/WX    TMP DP  RH WIND       PRES   REMARKS
Ephrata        MOSUNNY   79  43  27 SW6       30.00F
Moses Lake     SUNNY     79  45  29 SW7       30.01F
Pasco          SUNNY     82  50  32 SW12      30.01F
Richland       CLEAR     83  51  32 CALM      30.01S
Hermiston      SUNNY     82  43  25 SW10      30.02F
Pendleton      SUNNY     82  32  16 W9        30.05F

...East Slopes Cascades...

CITY           SKY/WX    TMP DP  RH WIND       PRES   REMARKS
The Dalles     SUNNY     80  54  40 NW17G25   30.03F
Yakima         SUNNY     85  46  25 VRB3      30.02F
Ellensburg     SUNNY     82  50  32 NW20      30.04S
Stampede Pass  MOSUNNY   59  52  77 VRB6      30.21R
Wenatchee      SUNNY     82  43  25 NW17      29.99F
Omak           MOSUNNY   79  41  25 NE3       29.99F
Sunnyside        N/A     74  49  41 CALM      30.02F

...Southern British Columbia...

CITY           SKY/WX    TMP DP  RH WIND       PRES   REMARKS
Penticton      PTSUNNY   75  46  35 N6        29.99F
Castlegar      MOSUNNY   79  45  29 S10       29.95F
Cranbrook      PTSUNNY   82  41  23 S20       29.94F
Osoyoos          N/A     73  52  46 N2          N/A
Creston          N/A     79  48  34 W1          N/A

...Western Montana...

CITY           SKY/WX    TMP DP  RH WIND       PRES   REMARKS
Kalispell      CLEAR     78  45  30 S15       30.03F
Libby            N/A     79  39  24 CALM      30.00F
Missoula       SUNNY     72  41  32 SE5       30.09F HAZE

...Neighboring Cities...

CITY           SKY/WX    TMP DP  RH WIND       PRES   REMARKS
Seattle        PTSUNNY   63  54  72 VRB7      30.19S
Portland       MOSUNNY   66  54  65 VRB3      30.19S
Boise          SUNNY     79  42  26 W5        30.11F
Great Falls    SUNNY     81  32  17 SW14G22   30.01F
Calgary        PTSUNNY   79  45  29 S8        29.85F



USA.gov is the U.S. government's official web portal to all federal, state and local government web resources and services.